Location: Bois Neuf
(42.7667°N, 0.6333°E)
Time: 22:21:04
(UTC+00:00)

Cosmos 1937 Rocket - Pass Details

Date: 27 September 2020
Orbit: 747 x 779 km, 74.0° (Epoch: 26 October)

Event Time Altitude Azimuth Distance (km) Brightness Sun altitude
Rises 01:53:17 0° 352° (N) 3,205 7.1 -40.4°
Reaches altitude 10° 01:56:22 10° 11° (N) 2,274 6.5 -40.0°
Maximum altitude 01:59:56 19° 55° (NE) 1,755 5.9 -39.6°
Enters shadow 01:59:58 19° 56° (NE) 1,755 5.9 -39.6°
